SCP
0 0 0 0 0 0 0 0 0 0 0 0 0 0 0 0 0 0 0 0 0 0
0 0 0 0 0 0 0 0 0 0 0 0 0 0 0 0 0 0 0 0 0 0
0 0 0 0 0 0 0 0 0 0 0 0 0 0 0 0 0 0 0 0 0 0
0 0 0 0 0 0 0 0 0 0 0 0 0 0 0 0 0 0 0 0 0 0
0 0 0 0 0 0 0 0 0 0 0 0 0 0 0 0 0 0 0 0 0 0
0 0 0 0 0 0 0 0 0 0 0 0 0 0 0 0 0 0 0 0 0 0
0 0 0 0 0 0 0 0 0 0 0 0 0 0 0 0 0 0 0 0 0 0
0 0 0 0 0 0 0 0 0 0 0 0 0 0 0 0 0 0 0 0 0 0
0 0 0 0 0 0 0 0 0 0 0 0 0 0 -0 0 0 0 0 0 0 -0
0 0 0 0 0 0 0 0 0 0 0 0 0 0 0 0 0 0 0 0 0 -0
0 0 0 0 0 0 0 0 0 0 0 0 0 0 0 0 0 0 0 0 0 0
0 0 0 0 0 0 0 0 0 0 0 0 0 0 0 0 0 0 0 0 -0 -0
0 0 0 0 0 0 0 0 0 0 0 0 0 0 0 0 0 0 0 0 0 -0
0 0 0 0 0 0 0 0 0 0 0 0 0 0 0 0 0 0 0 0 0 0
Wind_Speed_500mb
52 56 58 61 64 67 67 66 64 63 64 65 66 66 66 68 67 70 79 84 86 88
50 53 56 58 60 63 63 62 62 65 65 68 71 70 69 75 76 70 74 79 87 89
48 50 52 57 59 57 57 58 62 63 66 69 68 68 72 76 74 77 80 84 86 89
43 45 48 51 53 52 52 55 59 61 64 68 71 76 75 77 83 84 85 83 85 85
39 42 44 45 44 46 49 51 56 64 69 74 78 84 79 78 73 78 82 85 85 83
35 37 40 41 40 43 46 50 58 64 70 77 86 88 76 76 85 91 91 89 81 82
31 33 34 35 36 37 41 47 55 62 71 80 91 83 67 82 91 90 86 80 76 68
28 28 29 30 31 32 37 45 53 64 75 89 95 89 75 86 93 83 72 67 62 57
24 25 25 25 26 26 34 44 53 66 77 84 94 102 81 87 84 67 62 62 54 50
22 21 21 21 19 24 34 43 53 66 76 81 87 105 87 84 75 74 75 63 42 34
21 19 17 17 15 24 31 42 56 64 70 77 85 100 98 84 76 83 83 66 28 11
20 19 17 13 12 23 29 39 51 57 66 77 84 93 100 86 75 75 73 56 53 30
21 20 20 15 12 20 27 36 44 50 59 71 79 86 96 89 74 71 73 67 49 39
25 22 21 20 15 16 22 29 35 43 54 63 74 82 87 93 78 60 59 65 68 42
Wind_Direction_500mb
311 315 320 321 324 327 327 326 326 326 323 322 315 308 304 298 291 281 276 274 271 268
312 316 320 322 326 329 329 327 329 332 328 324 320 314 309 304 298 287 283 276 270 266
313 318 321 325 329 330 330 332 336 333 330 327 322 319 313 306 297 291 286 283 277 272
312 318 322 328 329 331 335 342 337 336 335 332 329 326 317 304 301 294 292 288 281 274
312 319 324 330 332 335 345 347 343 343 340 339 335 333 320 309 309 304 297 293 284 276
312 320 327 331 338 341 352 349 351 347 345 344 343 338 318 313 312 304 301 296 288 278
311 319 328 333 340 349 355 356 358 354 353 352 349 341 327 326 320 312 306 298 293 282
309 317 328 335 341 357 1 3 1 358 0 0 354 347 335 329 325 318 309 297 288 282
305 314 323 337 344 7 3 1 360 355 355 358 358 356 344 335 333 330 325 313 295 276
298 306 321 336 347 5 2 360 358 358 359 359 5 1 346 347 348 353 342 326 305 279
288 296 311 327 349 360 3 1 358 359 0 3 8 8 359 1 12 15 18 11 355 309
282 289 294 307 331 353 0 0 1 359 5 9 10 14 6 10 19 27 33 35 40 64
273 278 282 287 307 346 355 359 360 5 13 14 14 17 12 18 23 34 46 51 43 44
262 266 271 278 293 331 346 355 360 11 19 21 19 21 19 21 28 32 46 57 60 58
Wind_Speed_850mb
52 56 58 61 64 67 67 66 64 63 64 65 66 66 66 68 67 70 79 84 86 88
50 53 56 58 60 63 63 62 62 65 65 68 71 70 69 75 76 70 74 79 87 89
48 50 52 57 59 57 57 58 62 63 66 69 68 68 72 76 74 77 80 84 86 89
43 45 48 51 53 52 52 55 59 61 64 68 71 76 75 77 83 84 85 83 85 85
39 42 44 45 44 46 49 51 56 64 69 74 78 84 79 78 73 78 82 85 85 83
35 37 40 41 40 43 46 50 58 64 70 77 86 88 76 76 85 91 91 89 81 82
31 33 34 35 36 37 41 47 55 62 71 80 91 83 67 82 91 90 86 80 76 68
28 28 29 30 31 32 37 45 53 64 75 89 95 89 75 86 93 83 72 67 62 57
24 25 25 25 26 26 34 44 53 66 77 84 94 102 81 87 84 67 62 62 54 50
22 21 21 21 19 24 34 43 53 66 76 81 87 105 87 84 75 74 75 63 42 34
21 19 17 17 15 24 31 42 56 64 70 77 85 100 98 84 76 83 83 66 28 11
20 19 17 13 12 23 29 39 51 57 66 77 84 93 100 86 75 75 73 56 53 30
21 20 20 15 12 20 27 36 44 50 59 71 79 86 96 89 74 71 73 67 49 39
25 22 21 20 15 16 22 29 35 43 54 63 74 82 87 93 78 60 59 65 68 42
Wind_Direction_850mb
311 315 320 321 324 327 327 326 326 326 323 322 315 308 304 298 291 281 276 274 271 268
312 316 320 322 326 329 329 327 329 332 328 324 320 314 309 304 298 287 283 276 270 266
313 318 321 325 329 330 330 332 336 333 330 327 322 319 313 306 297 291 286 283 277 272
312 318 322 328 329 331 335 342 337 336 335 332 329 326 317 304 301 294 292 288 281 274
312 319 324 330 332 335 345 347 343 343 340 339 335 333 320 309 309 304 297 293 284 276
312 320 327 331 338 341 352 349 351 347 345 344 343 338 318 313 312 304 301 296 288 278
311 319 328 333 340 349 355 356 358 354 353 352 349 341 327 326 320 312 306 298 293 282
309 317 328 335 341 357 1 3 1 358 0 0 354 347 335 329 325 318 309 297 288 282
305 314 323 337 344 7 3 1 360 355 355 358 358 356 344 335 333 330 325 313 295 276
298 306 321 336 347 5 2 360 358 358 359 359 5 1 346 347 348 353 342 326 305 279
288 296 311 327 349 360 3 1 358 359 0 3 8 8 359 1 12 15 18 11 355 309
282 289 294 307 331 353 0 0 1 359 5 9 10 14 6 10 19 27 33 35 40 64
273 278 282 287 307 346 355 359 360 5 13 14 14 17 12 18 23 34 46 51 43 44
262 266 271 278 293 331 346 355 360 11 19 21 19 21 19 21 28 32 46 57 60 58